Tracking 27380 objects as of 5-Jun-2023
HD Live streaming from Space Station
objects crossing your sky now

DELTA 1 DEB

Track DELTA 1 DEB now!
10-day predictions


NORAD ID: 7146
Int'l Code: 1973-086DL
Perigee: 1,454.0 km
Apogee: 1,549.3 km
Inclination: 101.8 °
Period: 115.9 minutes
Semi major axis: 7872 km
RCS: 0.1412 m2 (medium)
Launch date: November 6, 1973
Source: United States (US)
Launch site: AIR FORCE WESTERN TEST RANGE (AFWTR)

Note: This is SATELLITE DEBRIS
Your satellite tracking list
Your tracking list is empty




NASA's NSSDC Master Catalog

Two Line Element Set (TLE):
1 07146U 73086DL  23156.23571841 -.00000431  00000-0 -27794-2 0  9991
2 07146 101.7748  47.8983 0060507  98.6678  19.8798 12.42854171236175
Source of the keplerian elements: AFSPC